CBY302 VTBD-VTCP

Flight info

Callsign CBY302
Flight time 1h 4m
Altitude 16000
Route UGUVO3C UGUVO Y27 IBUBU DCT SENOW
Aircraft AT76/M-SDFGIRY/S

Departure

Time 2026-05-07 09:28
Airport Don Mueang International Airport (VTBD)

Arrival

Time 2026-05-07 10:33
Airport Phrae Airport (VTCP)
Time Latitude Longitude Altitude Speed Heading
2026-05-07 09:14 13.91144 100.61063 14 ft 0 kts 209°
2026-05-07 09:22 13.91141 100.61060 14 ft 0 kts 236°
2026-05-07 09:23 13.91145 100.61054 -4 ft 1 kts 310°
2026-05-07 09:23 13.91194 100.61027 14 ft 13 kts 349°
2026-05-07 09:23 13.91285 100.61051 14 ft 14 kts 30°
2026-05-07 09:23 13.91368 100.61101 14 ft 14 kts 30°
2026-05-07 09:24 13.91450 100.61150 14 ft 14 kts 29°
2026-05-07 09:24 13.91530 100.61197 15 ft 14 kts 30°
2026-05-07 09:24 13.91615 100.61247 14 ft 14 kts 30°
2026-05-07 09:24 13.91705 100.61300 16 ft 15 kts 30°
2026-05-07 09:25 13.91797 100.61356 17 ft 16 kts 30°
2026-05-07 09:25 13.91893 100.61412 15 ft 16 kts 29°
2026-05-07 09:25 13.91991 100.61470 13 ft 16 kts 29°
2026-05-07 09:25 13.92091 100.61526 13 ft 16 kts 28°
2026-05-07 09:26 13.92197 100.61585 13 ft 19 kts 29°
2026-05-07 09:26 13.92316 100.61649 13 ft 19 kts 14°
2026-05-07 09:26 13.92377 100.61602 12 ft 0 kts 303°
2026-05-07 09:27 13.92382 100.61593 12 ft 7 kts 300°
2026-05-07 09:27 13.92376 100.61512 11 ft 13 kts 220°
2026-05-07 09:27 13.91932 100.61259 15 ft 86 kts 211°
2026-05-07 09:28 13.91524 100.61025 14 ft 117 kts 207°
2026-05-07 09:28 13.90737 100.60581 323 ft 133 kts 205°
2026-05-07 09:28 13.89917 100.60085 770 ft 144 kts 207°
2026-05-07 09:28 13.89034 100.59501 1202 ft 160 kts 207°
2026-05-07 09:29 13.87981 100.58955 1499 ft 180 kts 203°
2026-05-07 09:29 13.86880 100.58309 1880 ft 187 kts 224°
2026-05-07 09:29 13.86416 100.57060 2401 ft 196 kts 269°
2026-05-07 09:29 13.86935 100.55771 2893 ft 202 kts 313°
2026-05-07 09:30 13.87979 100.54836 3370 ft 199 kts 309°
2026-05-07 09:30 13.88829 100.53641 3576 ft 210 kts 302°
2026-05-07 09:30 13.89577 100.52342 3843 ft 217 kts 295°
2026-05-07 09:30 13.90127 100.50940 4403 ft 208 kts 290°
2026-05-07 09:31 13.90734 100.49598 4743 ft 209 kts 294°
2026-05-07 09:31 13.91301 100.48212 5082 ft 212 kts 294°
2026-05-07 09:31 13.91878 100.46812 5485 ft 214 kts 293°
2026-05-07 09:31 13.92417 100.45396 5969 ft 213 kts 291°
2026-05-07 09:32 13.92951 100.43967 6417 ft 215 kts 292°
2026-05-07 09:32 13.93491 100.42532 6866 ft 215 kts 292°
2026-05-07 09:32 13.94082 100.41114 7293 ft 217 kts 293°
2026-05-07 09:32 13.94635 100.39661 7723 ft 218 kts 292°
2026-05-07 09:33 13.95192 100.38201 8133 ft 219 kts 296°
2026-05-07 09:33 13.95816 100.36769 8556 ft 221 kts 292°
2026-05-07 09:33 13.96363 100.35290 8970 ft 222 kts 291°
2026-05-07 09:33 13.97035 100.33868 9337 ft 221 kts 314°
2026-05-07 09:34 13.98313 100.33033 9732 ft 219 kts 341°
2026-05-07 09:34 13.99773 100.32603 10108 ft 219 kts 351°
2026-05-07 09:34 14.01281 100.32383 10484 ft 219 kts 356°
2026-05-07 09:34 14.02803 100.32244 10852 ft 220 kts 358°
2026-05-07 09:35 14.04337 100.32113 11220 ft 222 kts 358°
2026-05-07 09:35 14.05879 100.31972 11582 ft 223 kts 356°
2026-05-07 09:35 14.07430 100.31806 11945 ft 225 kts 356°
2026-05-07 09:35 14.08988 100.31627 12295 ft 226 kts 356°
2026-05-07 09:36 14.10536 100.31445 12698 ft 227 kts 355°
2026-05-07 09:36 14.12132 100.31243 13177 ft 230 kts 355°
2026-05-07 09:36 14.13725 100.31047 13525 ft 231 kts 356°
2026-05-07 09:36 14.15328 100.30859 13812 ft 232 kts 355°
2026-05-07 09:37 14.16917 100.30673 14088 ft 233 kts 356°
2026-05-07 09:37 14.18554 100.30480 14370 ft 234 kts 356°
2026-05-07 09:37 14.20175 100.30291 14639 ft 235 kts 356°
2026-05-07 09:37 14.21785 100.30105 14886 ft 236 kts 356°
2026-05-07 09:38 14.23443 100.29913 15122 ft 237 kts 355°
2026-05-07 09:38 14.25064 100.29721 15420 ft 238 kts 355°
2026-05-07 09:38 14.26721 100.29526 15620 ft 243 kts 355°
2026-05-07 09:38 14.28429 100.29330 15686 ft 252 kts 355°
2026-05-07 09:39 14.30198 100.29129 15722 ft 259 kts 355°
2026-05-07 09:39 14.32011 100.28919 15735 ft 265 kts 355°
2026-05-07 09:39 14.33856 100.28703 15740 ft 269 kts 355°
2026-05-07 09:39 14.35729 100.28481 15744 ft 273 kts 355°
2026-05-07 09:40 14.37625 100.28255 15744 ft 276 kts 355°
2026-05-07 09:40 14.39541 100.28030 15742 ft 278 kts 355°
2026-05-07 09:40 14.41464 100.27805 15744 ft 280 kts 355°
2026-05-07 09:40 14.43406 100.27578 15746 ft 281 kts 355°
2026-05-07 09:41 14.45348 100.27352 15747 ft 281 kts 355°
2026-05-07 09:41 14.47292 100.27121 15745 ft 282 kts 354°
2026-05-07 09:41 14.49196 100.26630 15742 ft 283 kts 343°
2026-05-07 09:41 14.51055 100.25954 15743 ft 283 kts 341°
2026-05-07 09:42 14.52912 100.25268 15744 ft 284 kts 342°
2026-05-07 09:42 14.54789 100.24626 15740 ft 284 kts 344°
2026-05-07 09:42 14.56679 100.24024 15743 ft 285 kts 344°
2026-05-07 09:42 14.58577 100.23414 15744 ft 285 kts 344°
2026-05-07 09:43 14.60137 100.22910 15744 ft 286 kts 344°
2026-05-07 09:43 14.61710 100.22404 15742 ft 286 kts 344°
2026-05-07 09:43 14.63608 100.21790 15740 ft 286 kts 344°
2026-05-07 09:43 14.65503 100.21176 15742 ft 285 kts 345°
2026-05-07 09:44 14.67438 100.20879 15739 ft 282 kts
2026-05-07 09:44 14.69401 100.20882 15741 ft 282 kts
2026-05-07 09:44 14.71369 100.20915 15741 ft 283 kts
2026-05-07 09:44 14.73342 100.20903 15739 ft 284 kts
2026-05-07 09:45 14.75312 100.20835 15740 ft 284 kts 359°
2026-05-07 09:45 14.77285 100.20758 15743 ft 284 kts 359°
2026-05-07 09:45 14.79261 100.20691 15740 ft 284 kts 360°
2026-05-07 09:45 14.81236 100.20625 15740 ft 284 kts 360°
2026-05-07 09:46 14.83186 100.20558 15741 ft 284 kts 360°
2026-05-07 09:46 14.85160 100.20492 15740 ft 284 kts 360°
2026-05-07 09:46 14.87131 100.20426 15740 ft 284 kts 360°
2026-05-07 09:46 14.89104 100.20358 15740 ft 282 kts 359°
2026-05-07 09:47 14.91070 100.20292 15741 ft 283 kts 360°
2026-05-07 09:47 14.93038 100.20226 15740 ft 283 kts 360°
2026-05-07 09:47 14.95008 100.20157 15741 ft 283 kts 360°
2026-05-07 09:47 14.96977 100.20092 15743 ft 283 kts 360°
2026-05-07 09:48 14.98946 100.20024 15737 ft 283 kts 360°
2026-05-07 09:48 15.00920 100.19958 15741 ft 284 kts 359°
2026-05-07 09:48 15.02891 100.19890 15741 ft 284 kts 360°
2026-05-07 09:48 15.04865 100.19824 15737 ft 284 kts 360°
2026-05-07 09:49 15.06837 100.19756 15735 ft 284 kts 359°
2026-05-07 09:49 15.08813 100.19689 15741 ft 284 kts 360°
2026-05-07 09:49 15.10787 100.19623 15739 ft 284 kts 360°
2026-05-07 09:49 15.12766 100.19556 15738 ft 284 kts 360°
2026-05-07 09:50 15.14738 100.19458 15732 ft 284 kts 353°
2026-05-07 09:50 15.16630 100.18894 15735 ft 283 kts 341°
2026-05-07 09:50 15.18475 100.18169 15738 ft 284 kts 340°
2026-05-07 09:50 15.20324 100.17452 15740 ft 284 kts 342°
2026-05-07 09:51 15.21822 100.16922 15738 ft 284 kts 343°
2026-05-07 09:51 15.23714 100.16300 15736 ft 285 kts 344°
2026-05-07 09:51 15.25603 100.15682 15737 ft 285 kts 343°
2026-05-07 09:51 15.27490 100.15054 15731 ft 285 kts 343°
2026-05-07 09:52 15.29378 100.14424 15732 ft 285 kts 343°
2026-05-07 09:52 15.31260 100.13797 15733 ft 285 kts 343°
2026-05-07 09:52 15.33153 100.13164 15735 ft 285 kts 343°
2026-05-07 09:52 15.34669 100.12660 15737 ft 285 kts 343°
2026-05-07 09:53 15.36558 100.12031 15734 ft 286 kts 343°
2026-05-07 09:53 15.37381 100.11756 15734 ft 286 kts 343°
2026-05-07 09:53 15.39333 100.11104 15734 ft 286 kts 343°
2026-05-07 09:53 15.41227 100.10474 15734 ft 286 kts 343°
2026-05-07 09:54 15.43100 100.09847 15735 ft 286 kts 343°
2026-05-07 09:54 15.45017 100.09206 15733 ft 286 kts 343°
2026-05-07 09:54 15.46883 100.08586 15739 ft 286 kts 343°
2026-05-07 09:54 15.48814 100.07940 15731 ft 287 kts 343°
2026-05-07 09:55 15.50686 100.07316 15736 ft 287 kts 343°
2026-05-07 09:55 15.52611 100.06672 15734 ft 287 kts 343°
2026-05-07 09:55 15.54480 100.06046 15736 ft 287 kts 343°
2026-05-07 09:55 15.56377 100.05415 15734 ft 287 kts 343°
2026-05-07 09:56 15.58279 100.04778 15733 ft 287 kts 343°
2026-05-07 09:56 15.60178 100.04143 15732 ft 287 kts 343°
2026-05-07 09:56 15.62076 100.03509 15732 ft 287 kts 343°
2026-05-07 09:56 15.63972 100.02875 15731 ft 286 kts 343°
2026-05-07 09:57 15.65869 100.02239 15733 ft 286 kts 343°
2026-05-07 09:57 15.67761 100.01606 15733 ft 286 kts 343°
2026-05-07 09:57 15.69656 100.00972 15732 ft 286 kts 343°
2026-05-07 09:57 15.71545 100.00340 15735 ft 286 kts 343°
2026-05-07 09:58 15.73448 99.99705 15737 ft 286 kts 343°
2026-05-07 09:58 15.75339 99.99071 15737 ft 286 kts 343°
2026-05-07 09:58 15.77234 99.98437 15737 ft 286 kts 343°
2026-05-07 09:58 15.79127 99.97803 15733 ft 286 kts 343°
2026-05-07 09:59 15.81023 99.97168 15734 ft 286 kts 343°
2026-05-07 09:59 15.82915 99.96533 15734 ft 286 kts 343°
2026-05-07 09:59 15.84809 99.95899 15732 ft 286 kts 343°
2026-05-07 09:59 15.86699 99.95267 15731 ft 286 kts 343°
2026-05-07 10:00 15.88594 99.94631 15733 ft 286 kts 343°
2026-05-07 10:00 15.90497 99.93992 15733 ft 290 kts 343°
2026-05-07 10:00 15.92432 99.93344 15733 ft 297 kts 343°
2026-05-07 10:00 15.94419 99.92677 15734 ft 302 kts 343°
2026-05-07 10:01 15.96429 99.92010 15733 ft 302 kts 346°
2026-05-07 10:01 15.98520 99.91860 15736 ft 304 kts
2026-05-07 10:01 16.00630 99.92091 15733 ft 307 kts
2026-05-07 10:01 16.02758 99.92371 15732 ft 309 kts
2026-05-07 10:02 16.04884 99.92604 15732 ft 311 kts
2026-05-07 10:02 16.07065 99.92777 15736 ft 312 kts
2026-05-07 10:02 16.09231 99.92944 15733 ft 313 kts
2026-05-07 10:02 16.11402 99.93110 15735 ft 314 kts
2026-05-07 10:03 16.13581 99.93265 15732 ft 314 kts
2026-05-07 10:03 16.15764 99.93421 15736 ft 314 kts
2026-05-07 10:03 16.17938 99.93589 15733 ft 314 kts
2026-05-07 10:03 16.20121 99.93763 15735 ft 313 kts
2026-05-07 10:04 16.22280 99.93938 15737 ft 310 kts
2026-05-07 10:04 16.24439 99.94111 15732 ft 312 kts
2026-05-07 10:04 16.26604 99.94286 15737 ft 313 kts
2026-05-07 10:04 16.28773 99.94460 15733 ft 313 kts
2026-05-07 10:05 16.30942 99.94634 15736 ft 313 kts
2026-05-07 10:05 16.33115 99.94807 15738 ft 313 kts
2026-05-07 10:05 16.35290 99.95025 15740 ft 313 kts
2026-05-07 10:05 16.37452 99.95307 15734 ft 314 kts
2026-05-07 10:06 16.39620 99.95592 15739 ft 314 kts
2026-05-07 10:06 16.41791 99.95876 15736 ft 314 kts
2026-05-07 10:06 16.43961 99.96143 15733 ft 314 kts
2026-05-07 10:06 16.46136 99.96398 15735 ft 315 kts
2026-05-07 10:07 16.48312 99.96655 15738 ft 315 kts
2026-05-07 10:07 16.50484 99.96918 15732 ft 315 kts
2026-05-07 10:07 16.52657 99.97185 15733 ft 315 kts
2026-05-07 10:07 16.54827 99.97452 15736 ft 315 kts
2026-05-07 10:08 16.57006 99.97721 15733 ft 315 kts
2026-05-07 10:08 16.59178 99.97988 15731 ft 315 kts
2026-05-07 10:08 16.61353 99.98256 15733 ft 315 kts
2026-05-07 10:08 16.63526 99.98523 15738 ft 314 kts
2026-05-07 10:09 16.65699 99.98791 15735 ft 314 kts
2026-05-07 10:09 16.67872 99.99058 15736 ft 314 kts
2026-05-07 10:09 16.70044 99.99326 15735 ft 314 kts
2026-05-07 10:09 16.72217 99.99594 15737 ft 314 kts
2026-05-07 10:10 16.74393 99.99863 15734 ft 315 kts
2026-05-07 10:10 16.76567 100.00133 15739 ft 315 kts
2026-05-07 10:10 16.78739 100.00399 15738 ft 315 kts
2026-05-07 10:10 16.80915 100.00666 15734 ft 315 kts
2026-05-07 10:11 16.83091 100.00937 15741 ft 315 kts
2026-05-07 10:11 16.85268 100.01206 15737 ft 315 kts
2026-05-07 10:11 16.87441 100.01474 15735 ft 315 kts
2026-05-07 10:11 16.88882 100.01651 15737 ft 315 kts
2026-05-07 10:12 16.91634 100.01990 15741 ft 315 kts
2026-05-07 10:12 16.93613 100.02237 15738 ft 315 kts
2026-05-07 10:12 16.95818 100.02509 15735 ft 315 kts
2026-05-07 10:12 16.97964 100.02774 15739 ft 315 kts
2026-05-07 10:13 17.00136 100.03042 15741 ft 315 kts
2026-05-07 10:13 17.02310 100.03312 15744 ft 315 kts
2026-05-07 10:13 17.04481 100.03581 15749 ft 315 kts
2026-05-07 10:13 17.06658 100.03848 15751 ft 314 kts
2026-05-07 10:14 17.07659 100.03975 15753 ft 315 kts
2026-05-07 10:14 17.09832 100.04240 15754 ft 314 kts
2026-05-07 10:14 17.12006 100.04511 15755 ft 315 kts
2026-05-07 10:14 17.14181 100.04780 15756 ft 315 kts
2026-05-07 10:15 17.15652 100.04958 15756 ft 314 kts
2026-05-07 10:15 17.17823 100.05229 15755 ft 315 kts
2026-05-07 10:15 17.19997 100.05494 15759 ft 314 kts
2026-05-07 10:15 17.22171 100.05755 15757 ft 315 kts
2026-05-07 10:16 17.24359 100.05877 15758 ft 314 kts
2026-05-07 10:16 17.26544 100.05839 15756 ft 314 kts 359°
2026-05-07 10:16 17.28726 100.05784 15758 ft 314 kts 359°
2026-05-07 10:16 17.30912 100.05763 15755 ft 314 kts
2026-05-07 10:17 17.33096 100.05777 15757 ft 314 kts
2026-05-07 10:17 17.35284 100.05788 15759 ft 314 kts
2026-05-07 10:17 17.37469 100.05796 15648 ft 312 kts
2026-05-07 10:17 17.39611 100.05801 15521 ft 304 kts 360°
2026-05-07 10:18 17.41705 100.05809 15400 ft 298 kts 360°
2026-05-07 10:18 17.43731 100.05814 15263 ft 294 kts
2026-05-07 10:18 17.45799 100.05840 15074 ft 293 kts
2026-05-07 10:18 17.47348 100.05867 14934 ft 292 kts
2026-05-07 10:19 17.49376 100.05905 14751 ft 291 kts
2026-05-07 10:19 17.51407 100.05943 14479 ft 293 kts
2026-05-07 10:19 17.53453 100.05981 14168 ft 295 kts
2026-05-07 10:19 17.55494 100.06020 13864 ft 294 kts
2026-05-07 10:20 17.57534 100.06060 13552 ft 293 kts
2026-05-07 10:20 17.59581 100.06098 13196 ft 292 kts
2026-05-07 10:20 17.61608 100.06134 12849 ft 292 kts
2026-05-07 10:20 17.63638 100.06170 12502 ft 291 kts
2026-05-07 10:21 17.65659 100.06209 12164 ft 291 kts
2026-05-07 10:21 17.67683 100.06243 11826 ft 290 kts 360°
2026-05-07 10:21 17.69706 100.06284 11487 ft 290 kts
2026-05-07 10:21 17.71721 100.06319 11147 ft 290 kts
2026-05-07 10:22 17.73725 100.06356 10784 ft 279 kts 360°
2026-05-07 10:22 17.75580 100.06392 10166 ft 256 kts 360°
2026-05-07 10:22 17.77310 100.06423 9557 ft 242 kts 359°
2026-05-07 10:22 17.78959 100.06453 8879 ft 231 kts
2026-05-07 10:23 17.80461 100.06840 8217 ft 223 kts 32°
2026-05-07 10:23 17.81540 100.07962 7571 ft 216 kts 56°
2026-05-07 10:23 17.81894 100.09429 7123 ft 207 kts 97°
2026-05-07 10:23 17.81290 100.10728 6725 ft 198 kts 138°
2026-05-07 10:24 17.80068 100.11249 6335 ft 190 kts 181°
2026-05-07 10:24 17.78873 100.10815 6003 ft 178 kts 210°
2026-05-07 10:24 17.77734 100.10368 5681 ft 174 kts 205°
2026-05-07 10:24 17.76870 100.09511 5521 ft 175 kts 246°
2026-05-07 10:25 17.76652 100.08228 5422 ft 181 kts 271°
2026-05-07 10:25 17.76910 100.06919 5331 ft 187 kts 293°
2026-05-07 10:25 17.77804 100.05969 5248 ft 193 kts 338°
2026-05-07 10:25 17.79158 100.05864 5149 ft 197 kts
2026-05-07 10:26 17.80537 100.05991 4974 ft 207 kts
2026-05-07 10:26 17.82030 100.06087 4760 ft 216 kts
2026-05-07 10:26 17.83532 100.06185 4559 ft 223 kts
2026-05-07 10:26 17.85100 100.06288 4340 ft 228 kts
2026-05-07 10:27 17.86694 100.06393 4118 ft 231 kts
2026-05-07 10:27 17.88313 100.06498 3908 ft 234 kts
2026-05-07 10:27 17.89928 100.06604 3681 ft 229 kts
2026-05-07 10:27 17.91440 100.06924 3470 ft 219 kts 28°
2026-05-07 10:28 17.92673 100.07794 3374 ft 208 kts 38°
2026-05-07 10:28 17.93804 100.08710 3274 ft 203 kts 39°
2026-05-07 10:28 17.94907 100.09613 3183 ft 197 kts 39°
2026-05-07 10:28 17.95967 100.10466 3092 ft 188 kts 38°
2026-05-07 10:29 17.96998 100.11263 3004 ft 181 kts 37°
2026-05-07 10:29 17.98027 100.12036 2908 ft 182 kts 36°
2026-05-07 10:29 17.99057 100.12808 2814 ft 182 kts 37°
2026-05-07 10:30 18.01123 100.14347 2633 ft 182 kts 36°
2026-05-07 10:30 18.02157 100.15106 2561 ft 181 kts 36°
2026-05-07 10:30 18.03263 100.15605 2334 ft 170 kts
2026-05-07 10:30 18.04417 100.15708 2139 ft 163 kts
2026-05-07 10:31 18.05475 100.15783 1964 ft 139 kts
2026-05-07 10:31 18.06383 100.15847 1861 ft 125 kts
2026-05-07 10:31 18.07284 100.15915 1701 ft 131 kts
2026-05-07 10:31 18.08205 100.15970 1486 ft 134 kts
2026-05-07 10:32 18.09124 100.16056 1301 ft 132 kts
2026-05-07 10:32 18.10029 100.16164 1104 ft 130 kts
2026-05-07 10:32 18.10941 100.16231 887 ft 131 kts
2026-05-07 10:32 18.11835 100.16324 714 ft 129 kts
2026-05-07 10:33 18.12733 100.16422 550 ft 127 kts
2026-05-07 10:33 18.13366 100.16482 547 ft 46 kts
2026-05-07 10:33 18.13621 100.16511 549 ft 31 kts
2026-05-07 10:33 18.13815 100.16523 551 ft 25 kts 346°
2026-05-07 10:34 18.13872 100.16521 550 ft 2 kts 81°
2026-05-07 10:34 18.13866 100.16527 550 ft 3 kts 146°
2026-05-07 10:34 18.13839 100.16531 551 ft 2 kts 183°
2026-05-07 10:34 18.13813 100.16528 551 ft 5 kts 186°
2026-05-07 10:35 18.13781 100.16524 551 ft 6 kts 186°
2026-05-07 10:35 18.13716 100.16519 551 ft 12 kts 184°
2026-05-07 10:35 18.13610 100.16507 549 ft 18 kts 186°
2026-05-07 10:35 18.13469 100.16494 547 ft 22 kts 186°
2026-05-07 10:36 18.13312 100.16478 546 ft 21 kts 186°
2026-05-07 10:36 18.13191 100.16454 545 ft 14 kts 217°
2026-05-07 10:36 18.13180 100.16386 543 ft 8 kts 275°
2026-05-07 10:36 18.13179 100.16327 542 ft 6 kts 244°
2026-05-07 10:37 18.13158 100.16313 542 ft 1 kts 195°
2026-05-07 10:37 18.13145 100.16311 543 ft 3 kts 187°
2026-05-07 10:37 18.13140 100.16301 542 ft 5 kts 269°
2026-05-07 10:37 18.13162 100.16282 542 ft 2 kts
2026-05-07 10:38 18.13168 100.16283 542 ft 0 kts